Buffalo, NY

3:05 AM EST on December 16, 2019 (GMT -0500)
Buffalo Niagara International

Weather History for KBUF - August, 2019

Change the Weather History Date:

Friday, August 30, 2019

  Actual Average Record
Temperature  
Mean Temperature 68 °F 68 °F  
Max Temperature 76 °F 77 °F 91 °F (1951)
Min Temperature 59 °F 59 °F 38 °F (1965)
Degree Days  
Heating Degree Days 0 1  
Month to date heating degree days 2 15  
Since 1 June heating degree days 64 88  
Since 1 July heating degree days 2 24  
Cooling Degree Days 3 4  
Month to date cooling degree days 177 157  
Year to date cooling degree days 545 483  
Since 1 June cooling degree days 537 457  
Growing Degree Days 19 (Base 50)    
Moisture  
Dew Point 54 °F    
Average Humidity 63    
Maximum Humidity 79    
Minimum Humidity 46    
Precipitation  
Precipitation T in 0.11 in 1.48 in (1903)
Month to date precipitation 3.62 3.16  
Year to date precipitation 28.37 25.06  
Snow  
Snow 0.00 in 0.00 in 0.00 in ()
Month to date snowfall 0.0 0.0  
Since 1 June snowfall 0.0 0.0  
Since 1 July snowfall 0.0 0.0  
Snow Depth 0.00 in    
Sea Level Pressure  
Sea Level Pressure 29.99 in    
Wind  
Wind Speed 11 mph (West)    
Max Wind Speed 26 mph    
Max Gust Speed 36 mph    
Visibility 10 miles    
Events      
T = Trace of Precipitation, MM = Missing Value Source: NWS Daily Summary

Daily Weather History Graph

Daily Weather History Graph

Search for Another Location

Airport or City:

Astronomy

Aug. 30, 2019 Rise Set
Actual Time 6:37 AM EDT 7:53 PM EDT
Civil Twilight 6:07 AM EDT 8:22 PM EDT
Nautical Twilight 5:32 AM EDT 8:57 PM EDT
Astronomical Twilight 4:55 AM EDT 9:34 PM EDT
Moon 6:33 AM EDT (8/30) 8:28 PM EDT (8/30)
Length of Visible Light 14h 14m
Length of Day
13h 16m
New Moon, 0% of the Moon is Illuminated
Aug 30
New Moon
Sep 5
First Quarter
Sep 14
Full
Sep 21
Last Quarter
Sep 28
New

Hourly Weather History & Observations

Time (EDT) Temp. Dew Point Humidity Pressure Visibility Wind Dir Wind Speed Gust Speed Precip Events Conditions
12:54 AM 68.0 °F 54.0 °F 61% 29.87 in 10.0 mi SSW 11.5 mph - N/A   Overcast
1:54 AM 68.0 °F 54.0 °F 61% 29.85 in 10.0 mi SSW 12.7 mph - N/A   Mostly Cloudy
2:54 AM 69.1 °F 55.0 °F 61% 29.83 in 10.0 mi SSW 15.0 mph - N/A   Mostly Cloudy
3:54 AM 69.1 °F 57.0 °F 65% 29.83 in 10.0 mi SSW 13.8 mph - N/A   Overcast
4:54 AM 73.0 °F 61.0 °F 66% 29.84 in 10.0 mi SW 21.9 mph 36.8 mph 0.00 in   Overcast
5:54 AM 71.1 °F 64.0 °F 78% 29.86 in 10.0 mi WSW 15.0 mph 19.6 mph 0.00 in   Overcast
6:54 AM 69.1 °F 57.9 °F 68% 29.90 in 10.0 mi WNW 9.2 mph - N/A   Mostly Cloudy
7:54 AM 68.0 °F 54.0 °F 61% 29.93 in 10.0 mi NW 6.9 mph - N/A   Mostly Cloudy
8:54 AM 70.0 °F 54.0 °F 57% 29.96 in 10.0 mi West 6.9 mph - N/A   Partly Cloudy
9:54 AM 71.1 °F 52.0 °F 51% 29.98 in 10.0 mi WNW 8.1 mph - N/A   Partly Cloudy
10:54 AM 73.0 °F 53.1 °F 49% 30.00 in 10.0 mi WNW 12.7 mph - N/A   Partly Cloudy
11:54 AM 73.9 °F 52.0 °F 46% 30.01 in 10.0 mi West 12.7 mph - N/A   Partly Cloudy
12:54 PM 73.9 °F 54.0 °F 50% 30.01 in 10.0 mi SW 16.1 mph 20.7 mph N/A   Scattered Clouds
1:54 PM 75.0 °F 55.0 °F 50% 30.01 in 10.0 mi SW 12.7 mph 24.2 mph N/A   Scattered Clouds
2:54 PM 75.0 °F 55.9 °F 51% 30.01 in 10.0 mi WSW 15.0 mph - N/A   Mostly Cloudy
3:54 PM 75.0 °F 57.0 °F 53% 30.03 in 10.0 mi WSW 15.0 mph 21.9 mph N/A   Mostly Cloudy
4:54 PM 73.9 °F 57.0 °F 55% 30.03 in 10.0 mi WSW 17.3 mph 24.2 mph N/A   Mostly Cloudy
5:54 PM 73.9 °F 55.9 °F 53% 30.05 in 10.0 mi WSW 13.8 mph - N/A   Scattered Clouds
6:54 PM 73.0 °F 51.1 °F 46% 30.06 in 10.0 mi West 12.7 mph - N/A   Mostly Cloudy
7:54 PM 69.1 °F 48.0 °F 47% 30.09 in 10.0 mi NW 5.8 mph - N/A   Partly Cloudy
8:54 PM 66.9 °F 46.9 °F 49% 30.12 in 10.0 mi NW 5.8 mph - N/A   Scattered Clouds
9:54 PM 64.9 °F 48.0 °F 54% 30.15 in 10.0 mi WNW 4.6 mph - N/A   Scattered Clouds
10:54 PM 63.0 °F 48.9 °F 60% 30.17 in 10.0 mi NW 5.8 mph - N/A   Mostly Cloudy
11:54 PM 62.1 °F 50.0 °F 65% 30.17 in 10.0 mi Calm Calm - N/A   Scattered Clouds